Weather History for Mullan Pass, ID

Change the Weather History Date:

Wednesday, April 18, 2012

  Actual Average (K3TH) Record (K3TH)
Temperature  
Mean Temperature 31 °F -  
Max Temperature 35 °F 55 °F 73 °F (1999)
Min Temperature 28 °F 35 °F 28 °F (1998)
Degree Days  
Heating Degree Days 34    
Moisture  
Dew Point 30 °F    
Average Humidity 97    
Maximum Humidity 100    
Minimum Humidity 87    
Precipitation  
Precipitation 0.42 in - - ()
Sea Level Pressure  
Sea Level Pressure 29.91 in    
Wind  
Wind Speed 3 mph (WNW)    
Max Wind Speed 10 mph    
Max Gust Speed 21 mph    
Visibility 3 miles    
Events Fog , Snow    
Averages and records for this station are not official NWS values.
T = Trace of Precipitation, MM = Missing Value Source: NWS Daily Summary

Daily Weather History Graph

Daily Weather History Graph

Search for Another Location

Airport:

Trip Planner

Search our weather history database for the weather conditions in past years. The results will help you decide how hot, cold, wet, or windy it might be!

Date:

Astronomy

Apr. 18, 2012 Rise Set
Actual Time 5:47 AM PDT 7:37 PM PDT
Civil Twilight 5:14 AM PDT 8:09 PM PDT
Nautical Twilight 4:34 AM PDT 8:50 PM PDT
Astronomical Twilight 3:51 AM PDT 9:34 PM PDT
Moon 4:23 AM PDT (4/18) 5:25 PM PDT (4/18)
Length of Visible Light 14h 55m
Length of Day
13h 49m
Waning Crescent, 6% of the Moon is Illuminated
Apr 18
Waning Crescent
Apr 21
New
Apr 29
First Quarter
May 5
Full
May 12
Last Quarter

Hourly Weather History & Observations

Time (PDT) Temp. Windchill Dew Point Humidity Pressure Visibility Wind Dir Wind Speed Gust Speed Precip Events Conditions
12:01 AM 30.2 °F - 28.4 °F 93% 29.91 in 1.8 mi Calm Calm - 0.01 in Snow Light Snow
12:05 AM 30.2 °F - 28.4 °F 93% 29.91 in 1.2 mi Calm Calm - 0.01 in Snow Light Snow
12:12 AM 30.2 °F - 28.4 °F 93% 29.91 in 1.0 mi Calm Calm - 0.02 in Snow Light Snow
12:28 AM 30.2 °F - 28.4 °F 93% 29.90 in 1.5 mi Calm Calm - 0.03 in Snow Light Snow
12:37 AM 30.2 °F - 28.4 °F 93% 29.90 in 2.5 mi Calm Calm - 0.04 in Snow Light Snow
12:48 AM 30.2 °F - 28.4 °F 93% 29.90 in 1.2 mi Calm Calm - 0.04 in Snow Light Snow
12:53 AM 30.0 °F - 28.9 °F 96% 29.82 in 0.8 mi Calm Calm - 0.05 in Snow Light Snow
1:24 AM 30.2 °F - 28.4 °F 93% 29.89 in 1.0 mi Calm Calm - 0.03 in Snow Light Snow
1:38 AM 30.2 °F - 28.4 °F 93% 29.89 in 1.5 mi Calm Calm - 0.04 in Snow Light Snow
1:53 AM 30.0 °F - 28.9 °F 96% 29.80 in 1.8 mi Calm Calm - 0.04 in Snow Light Snow
1:59 AM 30.2 °F - 28.4 °F 93% 29.88 in 2.5 mi Calm Calm - 0.00 in Snow Light Snow
2:06 AM 30.2 °F - 28.4 °F 93% 29.88 in 1.5 mi Calm Calm - 0.01 in Snow Light Snow
2:10 AM 30.2 °F 26.7 °F 28.4 °F 93% 29.88 in 1.2 mi NNW 3.5 mph - 0.01 in Snow Light Snow
2:16 AM 30.2 °F 26.7 °F 28.4 °F 93% 29.88 in 0.8 mi North 3.5 mph - 0.01 in Snow Light Snow
2:22 AM 28.4 °F 22.2 °F 28.4 °F 100% 29.88 in 0.2 mi NNW 5.8 mph - 0.01 in Fog , Snow Light Snow
2:39 AM 28.4 °F 22.2 °F 28.4 °F 100% 29.88 in 0.2 mi NNW 5.8 mph - 0.01 in Fog , Snow Light Snow
2:53 AM 28.9 °F 22.8 °F 28.0 °F 96% 29.79 in 0.2 mi NNW 5.8 mph - 0.02 in Fog , Snow Light Snow
3:53 AM 28.0 °F 20.8 °F 27.0 °F 96% 29.80 in 0.2 mi NNW 6.9 mph - 0.03 in Fog , Snow Light Snow
4:53 AM 28.0 °F 22.8 °F 27.0 °F 96% 29.81 in 0.5 mi NNW 4.6 mph - 0.01 in Fog , Snow Light Snow
5:34 AM 28.4 °F 23.3 °F 28.4 °F 100% 29.89 in 0.5 mi Variable 4.6 mph - 0.01 in Fog , Snow Light Snow
5:53 AM 28.0 °F 21.7 °F 28.0 °F 100% 29.82 in 0.5 mi NW 5.8 mph - 0.01 in Fog , Snow Light Snow
6:12 AM 28.4 °F 22.2 °F 28.4 °F 100% 29.90 in 0.2 mi NW 5.8 mph - 0.01 in Fog , Snow Light Snow
6:53 AM 28.0 °F 22.8 °F 28.0 °F 100% 29.84 in 0.2 mi WNW 4.6 mph - 0.03 in Fog , Snow Light Snow
7:53 AM 28.0 °F - 28.0 °F 100% 29.85 in 0.2 mi Calm Calm - 0.02 in Fog , Snow Light Snow
8:53 AM 28.9 °F 25.2 °F 28.9 °F 100% 29.86 in 0.2 mi Variable 3.5 mph - 0.01 in Fog , Snow Light Snow
9:00 AM 28.4 °F 23.3 °F 28.4 °F 100% 29.94 in 0.5 mi SW 4.6 mph - 0.01 in Fog , Snow Light Snow
9:53 AM 30.0 °F 25.2 °F 28.9 °F 96% 29.87 in 0.5 mi Variable 4.6 mph - 0.01 in Fog , Snow Light Snow
10:13 AM 30.2 °F 26.7 °F 30.2 °F 100% 29.95 in 0.2 mi Variable 3.5 mph - 0.00 in Fog , Snow Light Snow
10:20 AM 30.2 °F 26.7 °F 30.2 °F 100% 29.95 in 0.5 mi Variable 3.5 mph - 0.00 in Fog , Snow Light Snow
10:39 AM 30.2 °F 25.4 °F 30.2 °F 100% 29.95 in 0.2 mi WNW 4.6 mph - 0.00 in Fog , Snow Light Snow
10:53 AM 30.9 °F - 30.9 °F 100% 29.87 in 0.2 mi Calm Calm - 0.00 in Fog , Snow Light Snow
11:33 AM 30.2 °F 26.7 °F 30.2 °F 100% 29.96 in 0.8 mi Variable 3.5 mph - 0.01 in Snow Light Snow
11:35 AM 30.2 °F 26.7 °F 30.2 °F 100% 29.96 in 1.5 mi Variable 3.5 mph - 0.01 in Snow Light Snow
11:38 AM 30.2 °F - 30.2 °F 100% 29.96 in 3.0 mi Calm Calm - 0.01 in   Overcast
11:53 AM 30.9 °F 24.3 °F 30.0 °F 96% 29.88 in 4.0 mi SW 6.9 mph - 0.01 in Snow Light Snow
12:21 PM 32.0 °F 28.7 °F 30.2 °F 93% 29.96 in 9.0 mi Variable 3.5 mph - 0.00 in   Overcast
12:49 PM 32.0 °F 28.7 °F 32.0 °F 100% 29.95 in 1.8 mi Variable 3.5 mph - 0.00 in   Overcast
12:53 PM 32.0 °F 28.7 °F 32.0 °F 100% 29.88 in 1.5 mi Variable 3.5 mph - 0.00 in   Overcast
12:59 PM 32.0 °F 28.7 °F 30.2 °F 93% 29.95 in 5.0 mi Variable 3.5 mph - N/A   Overcast
1:06 PM 33.8 °F 30.8 °F 32.0 °F 93% 29.95 in 10.0 mi Variable 3.5 mph - N/A   Overcast
1:28 PM 32.0 °F 26.4 °F 30.2 °F 93% 29.95 in 8.0 mi SW 5.8 mph - N/A   Overcast
1:42 PM 33.8 °F 27.0 °F 30.2 °F 87% 29.96 in 7.0 mi SW 8.1 mph - 0.00 in Snow Light Snow
1:53 PM 33.1 °F - 32.0 °F 96% 29.88 in 8.0 mi Calm Calm - 0.00 in Snow Light Snow
2:00 PM 33.8 °F - 32.0 °F 93% 29.96 in 9.0 mi Calm Calm - 0.00 in   Overcast
2:08 PM 33.8 °F - 33.8 °F 100% 29.95 in 7.0 mi Calm Calm - 0.00 in   Overcast
2:53 PM 34.0 °F 29.8 °F 32.0 °F 92% 29.88 in 10.0 mi Variable 4.6 mph - 0.00 in   Overcast
3:02 PM 33.8 °F - 30.2 °F 87% 29.95 in 10.0 mi Calm Calm - N/A   Overcast
3:34 PM 33.8 °F 27.7 °F 30.2 °F 87% 29.95 in 2.5 mi Variable 6.9 mph - 0.00 in Snow Light Snow
3:38 PM 32.0 °F 24.8 °F 30.2 °F 93% 29.95 in 1.2 mi SSW 8.1 mph - 0.00 in Snow Light Snow
3:41 PM 32.0 °F 25.6 °F 30.2 °F 93% 29.95 in 0.8 mi SSW 6.9 mph - 0.00 in Snow Light Snow
3:53 PM 30.9 °F 26.2 °F 30.9 °F 100% 29.88 in 0.2 mi Variable 4.6 mph - 0.03 in Fog , Snow Heavy Snow
4:05 PM 32.0 °F 27.5 °F 32.0 °F 100% 29.95 in 0.5 mi SW 4.6 mph - 0.01 in Fog , Snow Light Snow
4:12 PM 32.0 °F 27.5 °F 32.0 °F 100% 29.95 in 1.5 mi Variable 4.6 mph - 0.01 in Snow Light Snow
4:20 PM 32.0 °F - 32.0 °F 100% 29.95 in 0.8 mi Calm Calm - 0.01 in Snow Light Snow
4:28 PM 32.0 °F - 32.0 °F 100% 29.95 in 0.2 mi Calm Calm - 0.01 in Fog , Snow Light Snow
4:46 PM 32.0 °F 28.7 °F 32.0 °F 100% 29.95 in 1.0 mi Variable 3.5 mph - 0.01 in   Mist
5:01 PM 32.0 °F 28.7 °F 32.0 °F 100% 29.94 in 2.5 mi Variable 3.5 mph - 0.00 in   Overcast
5:03 PM 32.0 °F 27.5 °F 32.0 °F 100% 29.94 in 7.0 mi Variable 4.6 mph - 0.00 in   Overcast
5:10 PM 33.8 °F 29.6 °F 32.0 °F 93% 29.94 in 10.0 mi WSW 4.6 mph - 0.00 in   Overcast
5:22 PM 33.8 °F - 32.0 °F 93% 29.94 in 10.0 mi Calm Calm - 0.00 in   Overcast
5:53 PM 32.0 °F 27.5 °F 30.9 °F 96% 29.88 in 10.0 mi WSW 4.6 mph - 0.00 in   Overcast
6:00 PM 32.0 °F - 30.2 °F 93% 29.94 in 10.0 mi Calm Calm - N/A   Overcast
6:27 PM 32.0 °F 24.8 °F 30.2 °F 93% 29.93 in 1.8 mi West 8.1 mph - 0.01 in Snow Light Snow
6:30 PM 30.2 °F 21.3 °F 30.2 °F 100% 29.93 in 0.8 mi West 10.4 mph 17.3 mph 0.01 in Snow Light Snow
6:34 PM 30.2 °F 22.6 °F 28.4 °F 93% 29.94 in 0.5 mi West 8.1 mph 18.4 mph 0.01 in Fog , Snow Snow
6:45 PM 30.2 °F 21.9 °F 30.2 °F 100% 29.93 in 0.2 mi NW 9.2 mph 20.7 mph 0.03 in Fog , Snow Snow
6:53 PM 30.9 °F 26.2 °F 30.0 °F 96% 29.87 in 0.2 mi Variable 4.6 mph 18.4 mph 0.03 in Fog , Snow Light Snow
7:00 PM 30.2 °F 24.3 °F 30.2 °F 100% 29.93 in 0.2 mi Variable 5.8 mph - 0.00 in Fog , Snow Light Snow
7:19 PM 30.2 °F 25.4 °F 28.4 °F 93% 29.93 in 0.5 mi NW 4.6 mph - 0.00 in Fog Light Freezing Fog
7:23 PM 28.4 °F 23.3 °F 28.4 °F 100% 29.93 in 2.5 mi Variable 4.6 mph - 0.00 in   Mostly Cloudy
7:30 PM 28.4 °F 24.6 °F 28.4 °F 100% 29.93 in 10.0 mi NW 3.5 mph - 0.00 in   Mostly Cloudy
7:37 PM 28.4 °F - 28.4 °F 100% 29.93 in 10.0 mi Calm Calm - 0.00 in   Scattered Clouds
7:53 PM 28.9 °F - 28.0 °F 96% 30.01 in 10.0 mi Calm Calm - 0.00 in   Clear
8:53 PM 30.0 °F 26.5 °F 30.0 °F 100% 29.88 in 10.0 mi South 3.5 mph - N/A   Mostly Cloudy
9:24 PM 30.2 °F 24.3 °F 30.2 °F 100% 29.93 in 10.0 mi Variable 5.8 mph - N/A   Overcast
9:27 PM 30.2 °F 21.3 °F 30.2 °F 100% 29.95 in 1.5 mi NW 10.4 mph 20.7 mph N/A   Overcast
9:29 PM 28.4 °F 19.7 °F 28.4 °F 100% 29.94 in 0.8 mi NNW 9.2 mph 20.7 mph 0.00 in   Overcast
9:33 PM 28.4 °F 21.2 °F 28.4 °F 100% 29.94 in 0.5 mi NNW 6.9 mph 20.7 mph 0.03 in Fog , Snow Light Snow
9:40 PM 28.4 °F 22.2 °F 28.4 °F 100% 29.94 in 0.2 mi NW 5.8 mph - 0.04 in Fog , Snow Light Snow
9:53 PM 30.0 °F - 30.0 °F 100% 29.88 in 0.2 mi Calm Calm - 0.04 in Fog , Snow Light Snow
10:00 PM 30.2 °F - 28.4 °F 93% 29.94 in 1.0 mi Calm Calm - N/A   Overcast
10:04 PM 30.2 °F 26.7 °F 28.4 °F 93% 29.94 in 3.0 mi NW 3.5 mph - N/A   Overcast
10:13 PM 30.2 °F - 30.2 °F 100% 29.94 in 3.0 mi Calm Calm - 0.00 in Snow Light Snow
10:18 PM 30.2 °F - 30.2 °F 100% 29.94 in 1.8 mi Calm Calm - 0.00 in Snow Light Snow
10:23 PM 30.2 °F - 30.2 °F 100% 29.94 in 0.8 mi Calm Calm - 0.00 in Snow Light Snow
10:44 PM 30.2 °F - 30.2 °F 100% 29.94 in 1.5 mi Calm Calm - 0.01 in Snow Light Snow
10:50 PM 30.2 °F - 30.2 °F 100% 29.94 in 0.8 mi Calm Calm - 0.02 in Snow Light Snow
10:53 PM 30.0 °F - 30.0 °F 100% 29.87 in 0.5 mi Calm Calm - 0.02 in Fog , Snow Snow
11:53 PM 28.9 °F 25.2 °F 28.9 °F 100% 29.88 in 0.5 mi Variable 3.5 mph - 0.06 in Fog , Snow Snow